Time,TemperatureF,DewpointF,PressureIn,WindDirection,WindDirectionDegrees,WindSpeedMPH,WindSpeedGustMPH,Humidity,HourlyPrecipIn,Conditions,Clouds,dailyrainin,SoftwareType,DateUTC
2013-10-18 00:01:00,48.0,44.6,29.82,WSW,248,12.0,16.0,88,0.00,,---,0.00,VWS V14.01,2013-10-18 04:01:00,
2013-10-18 00:02:00,48.0,44.6,29.82,SW,225,10.0,16.0,88,0.00,,---,0.00,VWS V14.01,2013-10-18 04:02:00,
2013-10-18 00:03:00,48.0,44.6,29.82,SW,225,14.0,16.0,88,0.00,,---,0.00,VWS V14.01,2013-10-18 04:03:00,
2013-10-18 00:09:00,48.0,44.6,29.82,WSW,248,11.0,16.0,88,0.00,,---,0.00,VWS V14.01,2013-10-18 04:09:00,
2013-10-18 00:14:00,48.0,44.3,29.82,West,270,15.0,22.0,87,0.00,,---,0.00,VWS V14.01,2013-10-18 04:14:00,
2013-10-18 00:19:00,48.0,44.3,29.82,WSW,248,17.0,22.0,87,0.00,,---,0.00,VWS V14.01,2013-10-18 04:19:00,
2013-10-18 00:24:00,48.0,44.3,29.82,West,270,8.0,17.0,87,0.00,,---,0.00,VWS V14.01,2013-10-18 04:24:00,
2013-10-18 00:29:00,48.0,44.3,29.82,WSW,248,13.0,18.0,87,0.00,,---,0.00,VWS V14.01,2013-10-18 04:29:00,
2013-10-18 00:34:00,48.0,44.3,29.82,WSW,248,8.0,18.0,87,0.00,,---,0.00,VWS V14.01,2013-10-18 04:34:00,
2013-10-18 00:39:00,48.0,44.3,29.82,SW,225,8.0,19.0,87,0.00,,---,0.00,VWS V14.01,2013-10-18 04:39:00,
2013-10-18 00:44:00,48.0,44.0,29.82,WSW,248,11.0,17.0,86,0.00,,---,0.00,VWS V14.01,2013-10-18 04:44:00,
2013-10-18 00:50:00,48.0,44.0,29.82,WSW,248,11.0,17.0,86,0.00,,---,0.00,VWS V14.01,2013-10-18 04:50:00,
2013-10-18 00:55:00,48.0,44.0,29.82,WSW,248,8.0,17.0,86,0.00,,---,0.00,VWS V14.01,2013-10-18 04:55:00,
2013-10-18 01:00:00,48.0,44.0,29.82,SW,225,6.0,21.0,86,0.00,,---,0.00,VWS V14.01,2013-10-18 05:00:00,
2013-10-18 01:05:00,48.0,44.0,29.82,SW,225,10.0,16.0,86,0.00,,---,0.00,VWS V14.01,2013-10-18 05:05:00,
2013-10-18 01:10:00,48.0,44.0,29.82,WSW,248,9.0,16.0,86,0.00,,---,0.00,VWS V14.01,2013-10-18 05:10:00,
2013-10-18 01:15:00,48.0,44.0,29.82,WSW,248,5.0,17.0,86,0.00,,---,0.00,VWS V14.01,2013-10-18 05:15:00,
2013-10-18 01:21:00,48.0,44.3,29.82,WSW,248,8.0,10.0,87,0.00,,---,0.00,VWS V14.01,2013-10-18 05:21:00,
2013-10-18 01:26:00,47.0,43.3,29.82,West,270,8.0,13.0,87,0.00,,---,0.00,VWS V14.01,2013-10-18 05:26:00,
2013-10-18 01:31:00,47.0,43.3,29.82,WSW,248,11.0,13.0,87,0.00,,---,0.00,VWS V14.01,2013-10-18 05:31:00,
2013-10-18 01:36:00,48.0,44.3,29.82,WSW,248,13.0,18.0,87,0.00,,---,0.00,VWS V14.01,2013-10-18 05:36:00,
2013-10-18 01:41:00,47.0,43.0,29.83,SW,225,9.0,13.0,86,0.00,,---,0.00,VWS V14.01,2013-10-18 05:41:00,
2013-10-18 01:46:00,47.0,43.0,29.82,WSW,248,11.0,15.0,86,0.00,,---,0.00,VWS V14.01,2013-10-18 05:46:00,
2013-10-18 01:52:00,47.0,43.0,29.83,West,270,8.0,16.0,86,0.00,,---,0.00,VWS V14.01,2013-10-18 05:52:00,
2013-10-18 01:57:00,47.0,43.0,29.83,WSW,248,12.0,16.0,86,0.00,,---,0.00,VWS V14.01,2013-10-18 05:57:00,
2013-10-18 02:02:00,47.0,43.0,29.83,WSW,248,7.0,11.0,86,0.00,,---,0.00,VWS V14.01,2013-10-18 06:02:00,
2013-10-18 02:07:00,47.0,43.0,29.83,WSW,248,8.0,15.0,86,0.00,,---,0.00,VWS V14.01,2013-10-18 06:07:00,
2013-10-18 02:12:00,47.0,42.7,29.83,WSW,248,8.0,19.0,85,0.00,,---,0.00,VWS V14.01,2013-10-18 06:12:00,
2013-10-18 02:17:00,47.0,42.7,29.83,WSW,248,11.0,19.0,85,0.00,,---,0.00,VWS V14.01,2013-10-18 06:17:00,
2013-10-18 02:22:00,47.0,43.0,29.83,WSW,248,10.0,17.0,86,0.00,,---,0.00,VWS V14.01,2013-10-18 06:22:00,
2013-10-18 02:27:00,47.0,43.0,29.83,SW,225,10.0,18.0,86,0.00,,---,0.00,VWS V14.01,2013-10-18 06:27:00,
2013-10-18 02:33:00,48.0,44.0,29.83,SW,225,8.0,19.0,86,0.00,,---,0.00,VWS V14.01,2013-10-18 06:33:00,
2013-10-18 02:38:00,48.0,44.0,29.83,WSW,248,7.0,19.0,86,0.00,,---,0.00,VWS V14.01,2013-10-18 06:38:00,
2013-10-18 02:43:00,48.0,44.3,29.84,SW,225,10.0,16.0,87,0.00,,---,0.00,VWS V14.01,2013-10-18 06:43:00,
2013-10-18 02:48:00,47.0,43.3,29.83,SW,225,10.0,16.0,87,0.00,,---,0.00,VWS V14.01,2013-10-18 06:48:00,
2013-10-18 02:53:00,47.0,43.3,29.83,SW,225,10.0,17.0,87,0.00,,---,0.00,VWS V14.01,2013-10-18 06:53:00,
2013-10-18 02:58:00,47.0,43.6,29.83,WSW,248,11.0,18.0,88,0.00,,---,0.00,VWS V14.01,2013-10-18 06:58:00,
2013-10-18 03:03:00,47.0,43.9,29.83,WSW,248,13.0,19.0,89,0.00,,---,0.00,VWS V14.01,2013-10-18 07:03:00,
2013-10-18 03:08:00,47.0,44.2,29.83,SW,225,6.0,19.0,90,0.00,,---,0.00,VWS V14.01,2013-10-18 07:08:00,
2013-10-18 03:14:00,47.0,44.2,29.83,WSW,248,9.0,19.0,90,0.00,,---,0.00,VWS V14.01,2013-10-18 07:14:00,
2013-10-18 03:19:00,47.0,44.2,29.83,SW,225,8.0,19.0,90,0.00,,---,0.00,VWS V14.01,2013-10-18 07:19:00,
2013-10-18 03:24:00,47.0,44.5,29.83,SW,225,10.0,17.0,91,0.00,,---,0.00,VWS V14.01,2013-10-18 07:24:00,
2013-10-18 03:29:00,47.0,44.5,29.83,WSW,248,10.0,17.0,91,0.00,,---,0.00,VWS V14.01,2013-10-18 07:29:00,
2013-10-18 03:34:00,47.0,44.8,29.83,WSW,248,11.0,17.0,92,0.00,,---,0.00,VWS V14.01,2013-10-18 07:34:00,
2013-10-18 03:39:00,47.0,44.8,29.83,WSW,248,10.0,18.0,92,0.00,,---,0.00,VWS V14.01,2013-10-18 07:39:00,
2013-10-18 03:44:00,46.0,43.8,29.83,SW,225,10.0,16.0,92,0.00,,---,0.00,VWS V14.01,2013-10-18 07:44:00,
2013-10-18 03:49:00,47.0,45.1,29.83,WSW,248,11.0,18.0,93,0.00,,---,0.00,VWS V14.01,2013-10-18 07:49:00,
2013-10-18 03:55:00,46.0,44.1,29.83,SW,225,13.0,18.0,93,0.00,,---,0.00,VWS V14.01,2013-10-18 07:55:00,
2013-10-18 04:00:00,46.0,44.1,29.84,WSW,248,11.0,21.0,93,0.00,,---,0.00,VWS V14.01,2013-10-18 08:00:00,
2013-10-18 04:05:00,47.0,45.1,29.84,WSW,248,14.0,18.0,93,0.00,,---,0.00,VWS V14.01,2013-10-18 08:05:00,
2013-10-18 04:10:00,47.0,45.1,29.84,West,270,10.0,21.0,93,0.00,,---,0.00,VWS V14.01,2013-10-18 08:10:00,
2013-10-18 04:15:00,47.0,45.1,29.84,WSW,248,9.0,21.0,93,0.00,,---,0.00,VWS V14.01,2013-10-18 08:15:00,
2013-10-18 04:20:00,47.0,45.1,29.84,WSW,248,11.0,11.0,93,0.00,,---,0.00,VWS V14.01,2013-10-18 08:20:00,
2013-10-18 04:25:00,47.0,45.1,29.84,WSW,248,12.0,16.0,93,0.01,,---,0.01,VWS V14.01,2013-10-18 08:25:00,
2013-10-18 04:30:00,47.0,45.1,29.85,WSW,248,11.0,19.0,93,0.01,,---,0.01,VWS V14.01,2013-10-18 08:30:00,
2013-10-18 04:35:00,47.0,45.1,29.85,WSW,248,10.0,19.0,93,0.01,,---,0.01,VWS V14.01,2013-10-18 08:35:00,
2013-10-18 04:40:00,47.0,45.4,29.85,WSW,248,12.0,15.0,94,0.01,,---,0.01,VWS V14.01,2013-10-18 08:40:00,
2013-10-18 04:46:00,47.0,45.4,29.86,SW,225,14.0,19.0,94,0.01,,---,0.01,VWS V14.01,2013-10-18 08:46:00,
2013-10-18 04:51:00,47.0,45.1,29.86,WNW,292,10.0,19.0,93,0.01,,---,0.01,VWS V14.01,2013-10-18 08:51:00,
2013-10-18 04:56:00,47.0,45.1,29.86,WSW,248,9.0,19.0,93,0.01,,---,0.01,VWS V14.01,2013-10-18 08:56:00,
2013-10-18 05:01:00,47.0,45.1,29.86,West,270,9.0,14.0,93,0.01,,---,0.01,VWS V14.01,2013-10-18 09:01:00,
2013-10-18 05:06:00,47.0,45.1,29.87,WSW,248,11.0,14.0,93,0.01,,---,0.01,VWS V14.01,2013-10-18 09:06:00,
2013-10-18 05:11:00,47.0,44.8,29.86,West,270,14.0,16.0,92,0.01,,---,0.01,VWS V14.01,2013-10-18 09:11:00,
2013-10-18 05:16:00,47.0,44.8,29.87,WSW,248,12.0,16.0,92,0.01,,---,0.01,VWS V14.01,2013-10-18 09:16:00,
2013-10-18 05:21:00,47.0,44.8,29.87,SSW,202,9.0,12.0,92,0.01,,---,0.01,VWS V14.01,2013-10-18 09:21:00,
2013-10-18 05:26:00,47.0,44.8,29.87,WSW,248,11.0,14.0,92,0.01,,---,0.01,VWS V14.01,2013-10-18 09:26:00,
2013-10-18 05:31:00,47.0,44.5,29.87,West,270,12.0,18.0,91,0.01,,---,0.01,VWS V14.01,2013-10-18 09:31:00,
2013-10-18 05:36:00,47.0,44.2,29.87,West,270,10.0,18.0,90,0.02,,---,0.02,VWS V14.01,2013-10-18 09:36:00,
2013-10-18 05:41:00,47.0,43.9,29.88,WSW,248,13.0,16.0,89,0.01,,---,0.02,VWS V14.01,2013-10-18 09:41:00,
2013-10-18 05:46:00,47.0,44.2,29.88,West,270,11.0,16.0,90,0.01,,---,0.02,VWS V14.01,2013-10-18 09:46:00,
2013-10-18 05:52:00,47.0,43.9,29.88,WSW,248,14.0,16.0,89,0.01,,---,0.02,VWS V14.01,2013-10-18 09:52:00,
2013-10-18 05:57:00,47.0,43.9,29.88,WSW,248,5.0,16.0,89,0.01,,---,0.02,VWS V14.01,2013-10-18 09:57:00,
2013-10-18 06:02:00,47.0,43.9,29.88,WSW,248,8.0,13.0,89,0.01,,---,0.02,VWS V14.01,2013-10-18 10:02:00,
2013-10-18 06:07:00,47.0,43.9,29.88,WSW,248,11.0,13.0,89,0.01,,---,0.02,VWS V14.01,2013-10-18 10:07:00,
2013-10-18 06:12:00,47.0,44.2,29.88,West,270,5.0,13.0,90,0.01,,---,0.02,VWS V14.01,2013-10-18 10:12:00,
2013-10-18 06:17:00,47.0,43.9,29.88,SW,225,5.0,13.0,89,0.01,,---,0.02,VWS V14.01,2013-10-18 10:17:00,
2013-10-18 06:22:00,47.0,44.2,29.89,West,270,9.0,10.0,90,0.01,,---,0.02,VWS V14.01,2013-10-18 10:22:00,
2013-10-18 06:27:00,47.0,44.2,29.89,West,270,6.0,12.0,90,0.01,,---,0.02,VWS V14.01,2013-10-18 10:27:00,
2013-10-18 06:32:00,47.0,44.2,29.89,WSW,248,8.0,12.0,90,0.01,,---,0.02,VWS V14.01,2013-10-18 10:32:00,
2013-10-18 06:37:00,47.0,44.2,29.89,WSW,248,5.0,13.0,90,0.01,,---,0.02,VWS V14.01,2013-10-18 10:37:00,
2013-10-18 06:42:00,47.0,44.5,29.89,West,270,8.0,16.0,91,0.00,,---,0.02,VWS V14.01,2013-10-18 10:42:00,
2013-10-18 06:47:00,47.0,44.2,29.89,WNW,292,5.0,16.0,90,0.00,,---,0.02,VWS V14.01,2013-10-18 10:47:00,
2013-10-18 06:52:00,47.0,44.2,29.89,West,270,8.0,16.0,90,0.00,,---,0.02,VWS V14.01,2013-10-18 10:52:00,
2013-10-18 06:58:00,47.0,44.2,29.89,West,270,8.0,16.0,90,0.00,,---,0.02,VWS V14.01,2013-10-18 10:58:00,
2013-10-18 07:03:00,47.0,44.5,29.89,WSW,248,8.0,13.0,91,0.00,,---,0.02,VWS V14.01,2013-10-18 11:03:00,
2013-10-18 07:08:00,47.0,44.5,29.90,WSW,248,16.0,17.0,91,0.00,,---,0.02,VWS V14.01,2013-10-18 11:08:00,
2013-10-18 07:13:00,46.0,43.5,29.89,SW,225,8.0,17.0,91,0.00,,---,0.02,VWS V14.01,2013-10-18 11:13:00,
2013-10-18 07:18:00,47.0,44.5,29.89,WSW,248,5.0,17.0,91,0.00,,---,0.02,VWS V14.01,2013-10-18 11:18:00,
2013-10-18 07:23:00,47.0,44.5,29.90,WSW,248,6.0,11.0,91,0.00,,---,0.02,VWS V14.01,2013-10-18 11:23:00,
2013-10-18 07:28:00,46.0,43.5,29.90,SW,225,4.0,11.0,91,0.00,,---,0.02,VWS V14.01,2013-10-18 11:28:00,
2013-10-18 07:33:00,46.0,43.8,29.90,WSW,248,9.0,14.0,92,0.00,,---,0.02,VWS V14.01,2013-10-18 11:33:00,
2013-10-18 07:38:00,46.0,43.8,29.90,WSW,248,6.0,14.0,92,0.00,,---,0.02,VWS V14.01,2013-10-18 11:38:00,
2013-10-18 07:43:00,46.0,43.8,29.91,West,270,5.0,14.0,92,0.00,,---,0.02,VWS V14.01,2013-10-18 11:43:00,
2013-10-18 07:48:00,47.0,44.8,29.91,West,270,7.0,14.0,92,0.00,,---,0.02,VWS V14.01,2013-10-18 11:48:00,
2013-10-18 07:54:00,47.0,44.8,29.91,WSW,248,7.0,14.0,92,0.00,,---,0.02,VWS V14.01,2013-10-18 11:54:00,
2013-10-18 07:59:00,47.0,44.8,29.91,West,270,7.0,16.0,92,0.00,,---,0.02,VWS V14.01,2013-10-18 11:59:00,
2013-10-18 08:04:00,46.0,43.8,29.91,WSW,248,5.0,11.0,92,0.00,,---,0.02,VWS V14.01,2013-10-18 12:04:00,
2013-10-18 08:09:00,46.0,43.8,29.91,West,270,6.0,13.0,92,0.00,,---,0.02,VWS V14.01,2013-10-18 12:09:00,
2013-10-18 08:14:00,47.0,44.8,29.92,SW,225,6.0,13.0,92,0.00,,---,0.02,VWS V14.01,2013-10-18 12:14:00,
2013-10-18 08:19:00,46.0,43.8,29.92,West,270,11.0,13.0,92,0.00,,---,0.02,VWS V14.01,2013-10-18 12:19:00,
2013-10-18 08:24:00,46.0,43.8,29.92,WSW,248,5.0,12.0,92,0.00,,---,0.02,VWS V14.01,2013-10-18 12:24:00,
2013-10-18 08:29:00,46.0,43.8,29.92,WSW,248,8.0,12.0,92,0.00,,---,0.02,VWS V14.01,2013-10-18 12:29:00,
2013-10-18 08:34:00,46.0,43.8,29.92,WSW,248,6.0,12.0,92,0.00,,---,0.02,VWS V14.01,2013-10-18 12:34:00,
2013-10-18 08:39:00,46.0,43.8,29.92,WNW,292,6.0,14.0,92,0.00,,---,0.02,VWS V14.01,2013-10-18 12:39:00,
2013-10-18 08:44:00,46.0,43.5,29.93,WSW,248,6.0,15.0,91,0.00,,---,0.02,VWS V14.01,2013-10-18 12:44:00,
2013-10-18 08:50:00,46.0,43.8,29.93,SW,225,5.0,15.0,92,0.00,,---,0.02,VWS V14.01,2013-10-18 12:50:00,
2013-10-18 08:55:00,46.0,43.5,29.94,WSW,248,7.0,15.0,91,0.00,,---,0.02,VWS V14.01,2013-10-18 12:55:00,
2013-10-18 09:00:00,46.0,43.8,29.94,WSW,248,6.0,15.0,92,0.00,,---,0.02,VWS V14.01,2013-10-18 13:00:00,
2013-10-18 09:05:00,46.0,43.8,29.94,SW,225,6.0,10.0,92,0.00,,---,0.02,VWS V14.01,2013-10-18 13:05:00,
2013-10-18 09:10:00,47.0,44.8,29.94,SW,225,7.0,11.0,92,0.00,,---,0.02,VWS V14.01,2013-10-18 13:10:00,
2013-10-18 09:15:00,46.0,43.8,29.94,WSW,248,7.0,11.0,92,0.00,,---,0.02,VWS V14.01,2013-10-18 13:15:00,
2013-10-18 09:20:00,46.0,44.1,29.94,SW,225,6.0,7.0,93,0.00,,---,0.02,VWS V14.01,2013-10-18 13:20:00,
2013-10-18 09:25:00,46.0,44.1,29.95,WNW,292,9.0,11.0,93,0.00,,---,0.02,VWS V14.01,2013-10-18 13:25:00,
2013-10-18 09:31:00,46.0,44.1,29.94,SW,225,6.0,11.0,93,0.00,,---,0.02,VWS V14.01,2013-10-18 13:31:00,
2013-10-18 09:36:00,46.0,44.4,29.94,West,270,10.0,14.0,94,0.00,,---,0.02,VWS V14.01,2013-10-18 13:36:00,
2013-10-18 09:41:00,46.0,44.4,29.95,WSW,248,6.0,12.0,94,0.00,,---,0.02,VWS V14.01,2013-10-18 13:41:00,
2013-10-18 10:20:00,46.0,44.4,29.96,WSW,248,6.0,11.0,94,0.00,,---,0.02,VWS V14.01,2013-10-18 14:20:00,
2013-10-18 10:36:00,46.0,44.1,29.96,WNW,292,6.0,9.0,93,0.00,,---,0.02,VWS V14.01,2013-10-18 14:36:00,
2013-10-18 10:41:00,46.0,43.8,29.96,WSW,248,9.0,13.0,92,0.00,,---,0.02,VWS V14.01,2013-10-18 14:41:00,
2013-10-18 10:46:00,46.0,43.5,29.96,WSW,248,11.0,16.0,91,0.00,,---,0.02,VWS V14.01,2013-10-18 14:46:00,
2013-10-18 10:51:00,47.0,44.8,29.97,WSW,248,8.0,16.0,92,0.00,,---,0.02,VWS V14.01,2013-10-18 14:51:00,
2013-10-18 10:56:00,47.0,44.8,29.96,West,270,7.0,16.0,92,0.00,,---,0.02,VWS V14.01,2013-10-18 14:56:00,
2013-10-18 11:02:00,47.0,44.5,29.96,WSW,248,10.0,15.0,91,0.00,,---,0.02,VWS V14.01,2013-10-18 15:02:00,
2013-10-18 11:07:00,47.0,44.2,29.96,WSW,248,6.0,15.0,90,0.00,,---,0.02,VWS V14.01,2013-10-18 15:07:00,
2013-10-18 11:12:00,48.0,45.2,29.96,West,270,9.0,16.0,90,0.00,,---,0.02,VWS V14.01,2013-10-18 15:12:00,
2013-10-18 11:17:00,49.0,45.6,29.96,SW,225,11.0,16.0,88,0.00,,---,0.02,VWS V14.01,2013-10-18 15:17:00,
2013-10-18 11:22:00,49.0,44.7,29.96,West,270,8.0,19.0,85,0.00,,---,0.02,VWS V14.01,2013-10-18 15:22:00,
2013-10-18 11:27:00,49.0,44.7,29.96,West,270,13.0,19.0,85,0.00,,---,0.02,VWS V14.01,2013-10-18 15:27:00,
2013-10-18 11:32:00,50.0,45.4,29.96,WSW,248,10.0,19.0,84,0.00,,---,0.02,VWS V14.01,2013-10-18 15:32:00,
2013-10-18 11:37:00,50.0,45.0,29.97,WNW,292,13.0,19.0,83,0.00,,---,0.02,VWS V14.01,2013-10-18 15:37:00,
2013-10-18 11:42:00,50.0,45.0,29.97,West,270,11.0,16.0,83,0.00,,---,0.02,VWS V14.01,2013-10-18 15:42:00,
2013-10-18 11:47:00,50.0,44.4,29.97,SW,225,18.0,21.0,81,0.00,,---,0.02,VWS V14.01,2013-10-18 15:47:00,
2013-10-18 11:53:00,50.0,43.8,29.97,WSW,248,13.0,21.0,79,0.00,,---,0.02,VWS V14.01,2013-10-18 15:53:00,
2013-10-18 11:58:00,51.0,44.4,29.97,SW,225,14.0,21.0,78,0.00,,---,0.02,VWS V14.01,2013-10-18 15:58:00,
2013-10-18 12:03:00,52.0,45.4,29.97,West,270,10.0,19.0,78,0.00,,---,0.02,VWS V14.01,2013-10-18 16:03:00,
2013-10-18 12:08:00,52.0,44.0,29.97,WSW,248,13.0,23.0,74,0.00,,---,0.02,VWS V14.01,2013-10-18 16:08:00,
2013-10-18 12:13:00,52.0,44.0,29.96,West,270,18.0,23.0,74,0.00,,---,0.02,VWS V14.01,2013-10-18 16:13:00,
2013-10-18 12:18:00,52.0,43.3,29.96,WSW,248,14.0,23.0,72,0.00,,---,0.02,VWS V14.01,2013-10-18 16:18:00,
2013-10-18 12:23:00,52.0,43.6,29.96,WNW,292,9.0,15.0,73,0.00,,---,0.02,VWS V14.01,2013-10-18 16:23:00,
2013-10-18 12:28:00,53.0,44.2,29.96,West,270,13.0,18.0,72,0.00,,---,0.02,VWS V14.01,2013-10-18 16:28:00,
2013-10-18 12:33:00,52.0,43.3,29.96,West,270,8.0,18.0,72,0.00,,---,0.02,VWS V14.01,2013-10-18 16:33:00,
2013-10-18 12:38:00,52.0,42.5,29.96,West,270,13.0,21.0,70,0.00,,---,0.02,VWS V14.01,2013-10-18 16:38:00,
2013-10-18 12:43:00,52.0,42.9,29.96,SW,225,8.0,14.0,71,0.00,,---,0.02,VWS V14.01,2013-10-18 16:43:00,
2013-10-18 12:48:00,52.0,42.5,29.96,West,270,6.0,19.0,70,0.00,,---,0.02,VWS V14.01,2013-10-18 16:48:00,
2013-10-18 12:54:00,52.0,42.2,29.96,NW,315,7.0,19.0,69,0.00,,---,0.02,VWS V14.01,2013-10-18 16:54:00,
2013-10-18 12:59:00,52.0,41.8,29.96,West,270,12.0,19.0,68,0.00,,---,0.02,VWS V14.01,2013-10-18 16:59:00,
2013-10-18 13:04:00,52.0,41.8,29.96,WSW,248,7.0,18.0,68,0.00,,---,0.02,VWS V14.01,2013-10-18 17:04:00,
2013-10-18 13:09:00,53.0,41.6,29.96,WSW,248,11.0,18.0,65,0.00,,---,0.02,VWS V14.01,2013-10-18 17:09:00,
2013-10-18 13:14:00,53.0,41.2,29.95,WSW,248,7.0,18.0,64,0.00,,---,0.02,VWS V14.01,2013-10-18 17:14:00,
2013-10-18 13:19:00,53.0,40.8,29.95,WSW,248,8.0,18.0,63,0.00,,---,0.02,VWS V14.01,2013-10-18 17:19:00,
2013-10-18 13:24:00,54.0,42.1,29.95,WSW,248,10.0,18.0,64,0.00,,---,0.02,VWS V14.01,2013-10-18 17:24:00,
2013-10-18 13:29:00,55.0,42.7,29.95,West,270,11.0,18.0,63,0.00,,---,0.02,VWS V14.01,2013-10-18 17:29:00,
2013-10-18 13:34:00,54.0,39.6,29.95,West,270,14.0,21.0,58,0.00,,---,0.02,VWS V14.01,2013-10-18 17:34:00,
2013-10-18 13:36:00,55.0,41.0,29.94,WSW,248,17.0,21.0,59,0.00,,---,0.02,VWS V14.01,2013-10-18 17:36:00,
2013-10-18 13:41:00,55.0,41.0,29.94,WSW,248,9.0,14.0,59,0.00,,---,0.02,VWS V14.01,2013-10-18 17:41:00,
2013-10-18 13:46:00,55.0,40.5,29.94,WNW,292,11.0,18.0,58,0.00,,---,0.02,VWS V14.01,2013-10-18 17:46:00,
2013-10-18 13:51:00,56.0,40.1,29.94,West,270,10.0,18.0,55,0.00,,---,0.02,VWS V14.01,2013-10-18 17:51:00,
2013-10-18 13:56:00,56.0,40.1,29.94,SW,225,11.0,21.0,55,0.00,,---,0.02,VWS V14.01,2013-10-18 17:56:00,
2013-10-18 14:02:00,56.0,40.1,29.94,WSW,248,12.0,16.0,55,0.00,,---,0.02,VWS V14.01,2013-10-18 18:02:00,
2013-10-18 14:07:00,56.0,39.1,29.94,WSW,248,10.0,19.0,53,0.00,,---,0.02,VWS V14.01,2013-10-18 18:07:00,
2013-10-18 14:12:00,56.0,38.6,29.94,WSW,248,11.0,19.0,52,0.00,,---,0.02,VWS V14.01,2013-10-18 18:12:00,
2013-10-18 14:17:00,57.0,38.0,29.94,WSW,248,14.0,19.0,49,0.00,,---,0.02,VWS V14.01,2013-10-18 18:17:00,
2013-10-18 14:22:00,57.0,37.5,29.94,West,270,8.0,21.0,48,0.00,,---,0.02,VWS V14.01,2013-10-18 18:22:00,
2013-10-18 14:27:00,57.0,37.5,29.94,West,270,11.0,21.0,48,0.00,,---,0.02,VWS V14.01,2013-10-18 18:27:00,
2013-10-18 14:32:00,57.0,37.5,29.94,WNW,292,18.0,22.0,48,0.00,,---,0.02,VWS V14.01,2013-10-18 18:32:00,
2013-10-18 14:37:00,56.0,36.1,29.94,WSW,248,19.0,25.0,47,0.00,,---,0.02,VWS V14.01,2013-10-18 18:37:00,
2013-10-18 14:42:00,56.0,36.1,29.94,West,270,23.0,26.0,47,0.00,,---,0.02,VWS V14.01,2013-10-18 18:42:00,
2013-10-18 14:47:00,56.0,36.6,29.94,West,270,19.0,26.0,48,0.00,,---,0.02,VWS V14.01,2013-10-18 18:47:00,
2013-10-18 14:52:00,56.0,37.1,29.94,NW,315,6.0,26.0,49,0.00,,---,0.02,VWS V14.01,2013-10-18 18:52:00,
2013-10-18 14:58:00,56.0,36.6,29.94,WNW,292,14.0,26.0,48,0.00,,---,0.02,VWS V14.01,2013-10-18 18:58:00,
2013-10-18 15:03:00,56.0,36.6,29.94,West,270,13.0,20.0,48,0.00,,---,0.02,VWS V14.01,2013-10-18 19:03:00,
2013-10-18 15:08:00,56.0,36.1,29.94,West,270,14.0,23.0,47,0.00,,---,0.02,VWS V14.01,2013-10-18 19:08:00,
2013-10-18 15:13:00,57.0,38.0,29.94,WNW,292,9.0,23.0,49,0.00,,---,0.02,VWS V14.01,2013-10-18 19:13:00,
2013-10-18 15:18:00,57.0,38.6,29.94,West,270,10.0,23.0,50,0.00,,---,0.02,VWS V14.01,2013-10-18 19:18:00,
2013-10-18 15:23:00,58.0,37.9,29.94,WSW,248,12.0,22.0,47,0.00,,---,0.02,VWS V14.01,2013-10-18 19:23:00,
2013-10-18 15:28:00,58.0,36.2,29.94,WSW,248,12.0,26.0,44,0.00,,---,0.02,VWS V14.01,2013-10-18 19:28:00,
2013-10-18 15:33:00,58.0,37.4,29.94,West,270,17.0,26.0,46,0.00,,---,0.02,VWS V14.01,2013-10-18 19:33:00,
2013-10-18 15:38:00,57.0,37.0,29.94,WSW,248,14.0,26.0,47,0.00,,---,0.02,VWS V14.01,2013-10-18 19:38:00,
2013-10-18 15:44:00,57.0,37.5,29.95,West,270,14.0,26.0,48,0.00,,---,0.02,VWS V14.01,2013-10-18 19:44:00,
2013-10-18 15:49:00,57.0,37.5,29.94,West,270,8.0,26.0,48,0.00,,---,0.02,VWS V14.01,2013-10-18 19:49:00,
2013-10-18 15:54:00,57.0,37.5,29.95,West,270,13.0,26.0,48,0.00,,---,0.02,VWS V14.01,2013-10-18 19:54:00,
2013-10-18 15:59:00,57.0,38.0,29.94,West,270,9.0,26.0,49,0.00,,---,0.02,VWS V14.01,2013-10-18 19:59:00,
2013-10-18 16:04:00,57.0,37.5,29.94,WSW,248,12.0,19.0,48,0.00,,---,0.02,VWS V14.01,2013-10-18 20:04:00,
2013-10-18 16:09:00,57.0,38.0,29.94,WSW,248,9.0,22.0,49,0.00,,---,0.02,VWS V14.01,2013-10-18 20:09:00,
2013-10-18 16:14:00,57.0,38.0,29.93,WNW,292,13.0,22.0,49,0.00,,---,0.02,VWS V14.01,2013-10-18 20:14:00,
2013-10-18 16:19:00,57.0,38.0,29.93,West,270,12.0,22.0,49,0.00,,---,0.02,VWS V14.01,2013-10-18 20:19:00,
2013-10-18 16:25:00,57.0,38.6,29.94,WNW,292,11.0,12.0,50,0.00,,---,0.02,VWS V14.01,2013-10-18 20:25:00,
2013-10-18 16:30:00,57.0,38.6,29.93,West,270,6.0,14.0,50,0.00,,---,0.02,VWS V14.01,2013-10-18 20:30:00,
2013-10-18 16:35:00,57.0,38.6,29.93,WSW,248,8.0,18.0,50,0.00,,---,0.02,VWS V14.01,2013-10-18 20:35:00,
2013-10-18 16:40:00,57.0,38.6,29.93,WSW,248,10.0,18.0,50,0.00,,---,0.02,VWS V14.01,2013-10-18 20:40:00,
2013-10-18 16:45:00,57.0,38.6,29.93,WNW,292,7.0,16.0,50,0.00,,---,0.02,VWS V14.01,2013-10-18 20:45:00,
2013-10-18 16:50:00,58.0,40.0,29.93,SW,225,8.0,16.0,51,0.00,,---,0.02,VWS V14.01,2013-10-18 20:50:00,
2013-10-18 16:55:00,57.0,38.0,29.93,WSW,248,13.0,16.0,49,0.00,,---,0.02,VWS V14.01,2013-10-18 20:55:00,
2013-10-18 17:01:00,57.0,38.6,29.93,West,270,8.0,8.0,50,0.00,,---,0.02,VWS V14.01,2013-10-18 21:01:00,
2013-10-18 17:06:00,57.0,39.1,29.93,West,270,12.0,17.0,51,0.00,,---,0.02,VWS V14.01,2013-10-18 21:06:00,
2013-10-18 17:11:00,57.0,39.6,29.93,West,270,9.0,17.0,52,0.00,,---,0.02,VWS V14.01,2013-10-18 21:11:00,
2013-10-18 17:16:00,57.0,39.1,29.93,West,270,16.0,17.0,51,0.00,,---,0.02,VWS V14.01,2013-10-18 21:16:00,
2013-10-18 17:21:00,57.0,39.1,29.93,WSW,248,11.0,12.0,51,0.00,,---,0.02,VWS V14.01,2013-10-18 21:21:00,
2013-10-18 17:26:00,57.0,39.6,29.94,West,270,10.0,12.0,52,0.00,,---,0.02,VWS V14.01,2013-10-18 21:26:00,
2013-10-18 17:31:00,57.0,38.6,29.94,SW,225,8.0,14.0,50,0.00,,---,0.02,VWS V14.01,2013-10-18 21:31:00,
2013-10-18 17:36:00,57.0,39.6,29.93,WNW,292,5.0,14.0,52,0.00,,---,0.02,VWS V14.01,2013-10-18 21:36:00,
2013-10-18 17:42:00,57.0,39.6,29.94,WSW,248,6.0,8.0,52,0.00,,---,0.02,VWS V14.01,2013-10-18 21:42:00,
2013-10-18 17:47:00,57.0,39.1,29.94,WSW,248,10.0,15.0,51,0.00,,---,0.02,VWS V14.01,2013-10-18 21:47:00,
2013-10-18 17:52:00,56.0,38.2,29.94,WSW,248,7.0,15.0,51,0.00,,---,0.02,VWS V14.01,2013-10-18 21:52:00,
2013-10-18 17:57:00,56.0,39.1,29.94,WSW,248,6.0,15.0,53,0.00,,---,0.02,VWS V14.01,2013-10-18 21:57:00,
2013-10-18 18:02:00,56.0,39.6,29.94,WSW,248,7.0,7.0,54,0.00,,---,0.02,VWS V14.01,2013-10-18 22:02:00,
2013-10-18 18:07:00,56.0,40.1,29.94,SW,225,3.0,8.0,55,0.00,,---,0.02,VWS V14.01,2013-10-18 22:07:00,
2013-10-18 18:12:00,55.0,39.2,29.94,SW,225,4.0,8.0,55,0.00,,---,0.02,VWS V14.01,2013-10-18 22:12:00,
2013-10-18 18:17:00,55.0,39.6,29.94,WSW,248,3.0,8.0,56,0.00,,---,0.02,VWS V14.01,2013-10-18 22:17:00,
2013-10-18 18:23:00,55.0,39.6,29.94,SW,225,5.0,6.0,56,0.00,,---,0.02,VWS V14.01,2013-10-18 22:23:00,
2013-10-18 18:28:00,55.0,39.6,29.94,SSW,202,5.0,7.0,56,0.00,,---,0.02,VWS V14.01,2013-10-18 22:28:00,
2013-10-18 18:33:00,54.0,39.1,29.94,SW,225,3.0,7.0,57,0.00,,---,0.02,VWS V14.01,2013-10-18 22:33:00,
2013-10-18 18:38:00,54.0,39.6,29.94,SSW,202,5.0,7.0,58,0.00,,---,0.02,VWS V14.01,2013-10-18 22:38:00,
2013-10-18 18:43:00,54.0,40.0,29.94,SSW,202,2.0,5.0,59,0.00,,---,0.02,VWS V14.01,2013-10-18 22:43:00,
2013-10-18 18:48:00,54.0,40.4,29.94,South,180,3.0,5.0,60,0.00,,---,0.02,VWS V14.01,2013-10-18 22:48:00,
2013-10-18 18:53:00,53.0,39.5,29.94,SSW,202,5.0,6.0,60,0.00,,---,0.02,VWS V14.01,2013-10-18 22:53:00,
2013-10-18 18:58:00,53.0,39.9,29.94,SSW,202,3.0,6.0,61,0.00,,---,0.02,VWS V14.01,2013-10-18 22:58:00,
2013-10-18 19:03:00,53.0,39.9,29.95,SSW,202,2.0,6.0,61,0.00,,---,0.02,VWS V14.01,2013-10-18 23:03:00,
2013-10-18 19:09:00,53.0,40.3,29.95,SSW,202,4.0,6.0,62,0.00,,---,0.02,VWS V14.01,2013-10-18 23:09:00,
2013-10-18 19:14:00,53.0,40.3,29.95,South,180,4.0,6.0,62,0.00,,---,0.02,VWS V14.01,2013-10-18 23:14:00,
2013-10-18 19:19:00,53.0,40.3,29.95,South,180,3.0,6.0,62,0.00,,---,0.02,VWS V14.01,2013-10-18 23:19:00,
2013-10-18 19:24:00,52.0,39.4,29.95,SSW,202,3.0,5.0,62,0.00,,---,0.02,VWS V14.01,2013-10-18 23:24:00,
2013-10-18 19:29:00,52.0,39.4,29.95,South,180,5.0,7.0,62,0.00,,---,0.02,VWS V14.01,2013-10-18 23:29:00,
2013-10-18 19:34:00,52.0,39.4,29.95,South,180,4.0,7.0,62,0.00,,---,0.02,VWS V14.01,2013-10-18 23:34:00,
2013-10-18 19:39:00,52.0,39.4,29.95,South,180,6.0,7.0,62,0.00,,---,0.02,VWS V14.01,2013-10-18 23:39:00,
2013-10-18 19:44:00,52.0,39.4,29.95,SSW,202,7.0,8.0,62,0.00,,---,0.02,VWS V14.01,2013-10-18 23:44:00,
2013-10-18 19:49:00,52.0,39.4,29.95,South,180,4.0,8.0,62,0.00,,---,0.02,VWS V14.01,2013-10-18 23:49:00,
2013-10-18 19:54:00,52.0,39.4,29.95,SSW,202,6.0,8.0,62,0.00,,---,0.02,VWS V14.01,2013-10-18 23:54:00,
2013-10-18 20:00:00,52.0,39.4,29.95,SW,225,5.0,8.0,62,0.00,,---,0.02,VWS V14.01,2013-10-19 00:00:00,
2013-10-18 20:05:00,52.0,39.8,29.95,SSW,202,3.0,6.0,63,0.00,,---,0.02,VWS V14.01,2013-10-19 00:05:00,
2013-10-18 20:10:00,52.0,39.8,29.94,SSE,158,4.0,6.0,63,0.00,,---,0.02,VWS V14.01,2013-10-19 00:10:00,
2013-10-18 20:15:00,52.0,39.8,29.95,SSW,202,3.0,7.0,63,0.00,,---,0.02,VWS V14.01,2013-10-19 00:15:00,
2013-10-18 20:20:00,51.0,38.9,29.94,South,180,8.0,8.0,63,0.00,,---,0.02,VWS V14.01,2013-10-19 00:20:00,
2013-10-18 20:25:00,51.0,38.9,29.94,SSW,202,7.0,9.0,63,0.00,,---,0.02,VWS V14.01,2013-10-19 00:25:00,
2013-10-18 20:30:00,51.0,38.9,29.95,South,180,5.0,9.0,63,0.00,,---,0.02,VWS V14.01,2013-10-19 00:30:00,
2013-10-18 20:35:00,51.0,38.9,29.95,SSW,202,4.0,9.0,63,0.00,,---,0.02,VWS V14.01,2013-10-19 00:35:00,
2013-10-18 20:41:00,51.0,38.9,29.95,SSW,202,7.0,8.0,63,0.00,,---,0.02,VWS V14.01,2013-10-19 00:41:00,
2013-10-18 20:46:00,51.0,38.9,29.95,SSW,202,6.0,10.0,63,0.00,,---,0.02,VWS V14.01,2013-10-19 00:46:00,
2013-10-18 20:51:00,52.0,39.8,29.95,South,180,7.0,10.0,63,0.00,,---,0.02,VWS V14.01,2013-10-19 00:51:00,
2013-10-18 20:56:00,52.0,39.4,29.95,South,180,6.0,10.0,62,0.00,,---,0.02,VWS V14.01,2013-10-19 00:56:00,
2013-10-18 21:01:00,52.0,39.4,29.95,SW,225,5.0,10.0,62,0.00,,---,0.02,VWS V14.01,2013-10-19 01:01:00,
2013-10-18 21:06:00,52.0,39.4,29.95,SW,225,4.0,10.0,62,0.00,,---,0.02,VWS V14.01,2013-10-19 01:06:00,
2013-10-18 21:11:00,52.0,39.4,29.95,SSW,202,5.0,10.0,62,0.00,,---,0.02,VWS V14.01,2013-10-19 01:11:00,
2013-10-18 21:16:00,52.0,39.8,29.95,SSE,158,5.0,10.0,63,0.00,,---,0.02,VWS V14.01,2013-10-19 01:16:00,
2013-10-18 21:21:00,52.0,39.8,29.95,SSW,202,3.0,7.0,63,0.00,,---,0.02,VWS V14.01,2013-10-19 01:21:00,
2013-10-18 21:27:00,52.0,39.4,29.95,SSW,202,5.0,10.0,62,0.00,,---,0.02,VWS V14.01,2013-10-19 01:27:00,
2013-10-18 21:32:00,52.0,39.4,29.95,WSW,248,3.0,10.0,62,0.00,,---,0.02,VWS V14.01,2013-10-19 01:32:00,
2013-10-18 21:37:00,52.0,39.4,29.95,SW,225,6.0,10.0,62,0.00,,---,0.02,VWS V14.01,2013-10-19 01:37:00,
2013-10-18 21:42:00,52.0,39.8,29.95,SW,225,6.0,8.0,63,0.00,,---,0.02,VWS V14.01,2013-10-19 01:42:00,
2013-10-18 21:47:00,52.0,39.8,29.95,SW,225,5.0,8.0,63,0.00,,---,0.02,VWS V14.01,2013-10-19 01:47:00,
2013-10-18 21:52:00,52.0,39.8,29.95,SW,225,5.0,10.0,63,0.00,,---,0.02,VWS V14.01,2013-10-19 01:52:00,
2013-10-18 21:57:00,52.0,39.8,29.95,SSW,202,4.0,10.0,63,0.00,,---,0.02,VWS V14.01,2013-10-19 01:57:00,
2013-10-18 22:02:00,52.0,39.8,29.95,SW,225,5.0,6.0,63,0.00,,---,0.02,VWS V14.01,2013-10-19 02:02:00,
2013-10-18 22:07:00,51.0,38.9,29.95,South,180,3.0,9.0,63,0.00,,---,0.02,VWS V14.01,2013-10-19 02:07:00,
2013-10-18 22:13:00,51.0,39.3,29.95,SSW,202,3.0,10.0,64,0.00,,---,0.02,VWS V14.01,2013-10-19 02:13:00,
2013-10-18 22:18:00,51.0,38.9,29.96,WSW,248,6.0,10.0,63,0.00,,---,0.02,VWS V14.01,2013-10-19 02:18:00,
2013-10-18 22:23:00,51.0,38.9,29.96,SSW,202,5.0,10.0,63,0.00,,---,0.02,VWS V14.01,2013-10-19 02:23:00,
2013-10-18 22:28:00,51.0,38.9,29.96,SW,225,6.0,10.0,63,0.00,,---,0.02,VWS V14.01,2013-10-19 02:28:00,
2013-10-18 22:33:00,51.0,38.9,29.96,South,180,5.0,10.0,63,0.00,,---,0.02,VWS V14.01,2013-10-19 02:33:00,
2013-10-18 22:38:00,52.0,39.8,29.96,SW,225,8.0,10.0,63,0.00,,---,0.02,VWS V14.01,2013-10-19 02:38:00,
2013-10-18 22:43:00,52.0,39.8,29.96,South,180,4.0,7.0,63,0.00,,---,0.02,VWS V14.01,2013-10-19 02:43:00,
2013-10-18 22:48:00,52.0,39.4,29.95,SW,225,7.0,10.0,62,0.00,,---,0.02,VWS V14.01,2013-10-19 02:48:00,
2013-10-18 22:53:00,52.0,39.4,29.95,SSE,158,3.0,10.0,62,0.00,,---,0.02,VWS V14.01,2013-10-19 02:53:00,
2013-10-18 22:59:00,52.0,39.4,29.95,SE,135,4.0,10.0,62,0.00,,---,0.02,VWS V14.01,2013-10-19 02:59:00,
2013-10-18 23:04:00,52.0,39.4,29.95,South,180,5.0,8.0,62,0.00,,---,0.02,VWS V14.01,2013-10-19 03:04:00,
2013-10-18 23:09:00,52.0,39.4,29.95,South,180,5.0,12.0,62,0.00,,---,0.02,VWS V14.01,2013-10-19 03:09:00,
2013-10-18 23:14:00,52.0,39.4,29.95,SW,225,6.0,12.0,62,0.00,,---,0.02,VWS V14.01,2013-10-19 03:14:00,
2013-10-18 23:19:00,52.0,39.4,29.95,SSW,202,5.0,12.0,62,0.00,,---,0.02,VWS V14.01,2013-10-19 03:19:00,
2013-10-18 23:24:00,51.0,38.5,29.95,South,180,5.0,10.0,62,0.00,,---,0.02,VWS V14.01,2013-10-19 03:24:00,
2013-10-18 23:29:00,51.0,38.9,29.95,SSW,202,4.0,11.0,63,0.00,,---,0.02,VWS V14.01,2013-10-19 03:29:00,
2013-10-18 23:35:00,51.0,38.9,29.95,SW,225,4.0,11.0,63,0.00,,---,0.02,VWS V14.01,2013-10-19 03:35:00,
2013-10-18 23:40:00,51.0,39.3,29.95,SW,225,5.0,11.0,64,0.00,,---,0.02,VWS V14.01,2013-10-19 03:40:00,
2013-10-18 23:45:00,51.0,39.3,29.95,South,180,4.0,11.0,64,0.00,,---,0.02,VWS V14.01,2013-10-19 03:45:00,
2013-10-18 23:50:00,51.0,39.3,29.95,South,180,3.0,11.0,64,0.00,,---,0.02,VWS V14.01,2013-10-19 03:50:00,
2013-10-18 23:55:00,51.0,39.3,29.95,SSW,202,4.0,11.0,64,0.00,,---,0.02,VWS V14.01,2013-10-19 03:55:00,